C/2020 H8 ( PanSTARRS )

Japanese version
Home page
Updated on September 6, 2020

---------------------------------------------------------------------

* Profile

Discovery Date April 30, 2020
Magnitude 20.7 mag
Discoverer R. Wainscoat (Pan-STARRS2 1.8-m Ritchey-Chretien reflector at Haleakala)

* Pictures

* Orbital Elements

Epoch 2020 May 31.0 TT = JDT 2459000.5
T 2020 June 4.19444 TT                                  Rudenko
q   4.6745238            (2000.0)            P               Q
z  +0.0016338      Peri.  128.89525     -0.10980744     -0.38426350
 +/-0.0000135      Node    68.40654     -0.88490303     -0.38219750
e   0.9923626      Incl.   99.64695     +0.45264661     -0.84039671
From 172 observations 2020 Apr. 30-Aug. 11, mean residual 0".4.

* Magnitudes Graph

        m1 = 10.0 + 5 log d + 10.0 log r

---------------------------------------------------------------------

The orbital elements are published on M.P.E.C. 2020-R04.
The magnitudes graphs are made with Comet for Windows.

---------------------------------------------------------------------

Copyright(C) Seiichi Yoshida (comet@aerith.net). All rights reserved.